Detroit, MI

11:31 AM EST on November 21, 2019 (GMT -0500)
Detroit City

Weather History for KDET - October, 2019

Change the Weather History Date:

Sunday, October 20, 2019

  Actual Average Record
Temperature  
Mean Temperature 56 °F -  
Max Temperature 68 °F 56 °F 77 °F (1953)
Min Temperature 45 °F 41 °F 26 °F (1952)
Degree Days  
Heating Degree Days 10    
Growing Degree Days 6 (Base 50)    
Moisture  
Dew Point 47 °F    
Average Humidity 78    
Maximum Humidity 96    
Minimum Humidity 45    
Precipitation  
Precipitation 0.00 in - - ()
Sea Level Pressure  
Sea Level Pressure 29.88 in    
Wind  
Wind Speed 0 mph (ENE)    
Max Wind Speed 4 mph    
Max Gust Speed -    
Visibility 8 miles    
Events      
Averages and records for this station are not official NWS values.
T = Trace of Precipitation, MM = Missing Value Source: NWS Daily Summary

Daily Weather History Graph

Daily Weather History Graph

Search for Another Location

Airport or City:

Astronomy

Oct. 20, 2019 Rise Set
Actual Time 7:50 AM EDT 6:42 PM EDT
Civil Twilight 7:22 AM EDT 7:10 PM EDT
Nautical Twilight 6:49 AM EDT 7:43 PM EDT
Astronomical Twilight 6:16 AM EDT 8:16 PM EDT
Moon 11:45 PM EDT (10/20) 2:22 PM EDT (10/20)
Length of Visible Light 11h 48m
Length of Day
10h 51m
Waning Gibbous, 59% of the Moon is Illuminated
Oct 20
Waning Gibbous
Oct 21
Last Quarter
Oct 27
New
Nov 4
First Quarter
Nov 12
Full

Hourly Weather History & Observations

Time (EDT) Temp. Dew Point Humidity Pressure Visibility Wind Dir Wind Speed Gust Speed Precip Events Conditions
12:53 AM 48.0 °F 46.0 °F 93% 29.84 in 9.0 mi Calm Calm - N/A   Clear
1:53 AM 48.0 °F 46.0 °F 93% 29.83 in 7.0 mi Calm Calm - N/A   Clear
2:53 AM 50.0 °F 48.0 °F 93% 29.82 in 8.0 mi ENE 3.5 mph - N/A   Clear
3:53 AM 48.9 °F 46.9 °F 93% 29.81 in 7.0 mi Calm Calm - N/A   Clear
4:53 AM 46.9 °F 45.0 °F 93% 29.81 in 6.0 mi Calm Calm - N/A   Clear
5:16 AM 46.0 °F 45.0 °F 96% 29.81 in 1.8 mi Calm Calm - N/A   Clear
5:31 AM 46.0 °F 45.0 °F 96% 29.80 in 3.0 mi Calm Calm - N/A   Clear
5:53 AM 45.0 °F 43.0 °F 93% 29.81 in 5.0 mi Calm Calm - N/A   Clear
6:53 AM 48.0 °F 46.0 °F 93% 29.83 in 10.0 mi Calm Calm - N/A   Partly Cloudy
7:53 AM 48.9 °F 46.9 °F 93% 29.84 in 8.0 mi Calm Calm - N/A   Clear
8:53 AM 50.0 °F 48.9 °F 96% 29.86 in 8.0 mi Calm Calm - N/A   Mostly Cloudy
9:53 AM 55.0 °F 54.0 °F 96% 29.87 in 10.0 mi Calm Calm - N/A   Mostly Cloudy
10:53 AM 57.9 °F 46.9 °F 67% 29.88 in 10.0 mi Calm Calm - N/A   Overcast
11:53 AM 61.0 °F 46.0 °F 58% 29.89 in 10.0 mi Calm Calm - N/A   Overcast
12:53 PM 63.0 °F 46.0 °F 54% 29.89 in 10.0 mi Calm Calm - N/A   Overcast
1:53 PM 63.0 °F 46.0 °F 54% 29.90 in 10.0 mi Calm Calm - N/A   Overcast
2:53 PM 64.9 °F 48.0 °F 54% 29.89 in 6.0 mi Calm Calm - N/A   Haze
3:53 PM 66.0 °F 45.0 °F 47% 29.89 in 10.0 mi Calm Calm - N/A   Clear
4:53 PM 66.9 °F 46.0 °F 47% 29.90 in 9.0 mi Calm Calm - N/A   Clear
5:53 PM 66.9 °F 45.0 °F 45% 29.91 in 10.0 mi Calm Calm - N/A   Clear
6:53 PM 60.1 °F 46.9 °F 62% 29.92 in 10.0 mi SE 3.5 mph - N/A   Clear
7:53 PM 57.0 °F 46.9 °F 69% 29.94 in 10.0 mi Calm Calm - N/A   Clear
8:53 PM 54.0 °F 46.9 °F 77% 29.96 in 10.0 mi Calm Calm - N/A   Clear
9:53 PM 53.1 °F 50.0 °F 89% 29.98 in 9.0 mi North 3.5 mph - N/A   Clear
10:53 PM 50.0 °F 46.9 °F 89% 29.99 in 9.0 mi Calm Calm - N/A   Clear
11:53 PM 50.0 °F 46.9 °F 89% 30.00 in 9.0 mi Calm Calm - N/A   Clear